Tracking 27380 objects as of 5-Jun-2023
HD Live streaming from Space Station
objects crossing your sky now

STARLINK-1146

Track STARLINK-1146 now!
10-day predictions
STARLINK-1146 is classified as:


NORAD ID: 45094
Int'l Code: 2020-006BC
Perigee: 553.7 km
Apogee: 555.0 km
Inclination: 53.1 °
Period: 95.6 minutes
Semi major axis: 6925 km
RCS: Unknown
Launch date: January 29, 2020
Source: United States (US)
Launch site: AIR FORCE EASTERN TEST RANGE (AFETR)
Your satellite tracking list
Your tracking list is empty




NASA's NSSDC Master Catalog

Two Line Element Set (TLE):
1 45094U 20006BC  23155.86426762  .00001886  00000-0  14545-3 0  9992
2 45094  53.0530  95.3992 0000968  65.5673 294.5417 15.06396282184975
Source of the keplerian elements: AFSPC